Voltar ao catálogo

FENGYUN 1C DEB

AtivoSSO
NORAD 29877·DEBRIS·🇨🇳 China

Lançado May 10, 1999 de Taiyuan Satellite Launch Center

Loading…

Próximas Passagens (próximas 24 horas)

TLE

AtualizadoSource: Space-Track

Época: Sep 14, 2026, 00:01 UTC

1 29877U 99025FX  26257.00104921  .00000565  00000-0  25483-3 0  9998
2 29877  98.5409 259.9327 0046990 134.4707 281.7381 14.25323786 18898

Acompanhe FENGYUN 1C DEB em tempo real com AllMySat

Download on the App Store